Regional Weather Roundup
Issued by NWS Little Rock, AR

Home | Current Version | Previous Version | Text Only | Print | Product List | Glossary On
Versions: 1 2 3 4 5 6 7 8 9 10 11 12 13 14 15 16 17 18 19 20 21 22 23 24 25 26 27 28 29 30 31 32 33 34 35 36 37 38 39 40 41 42 43 44 45 46 47 48 49 50
000
ASUS44 KLZK 102205
RWRLZK

WEATHER ROUNDUP FOR ARKANSAS
NATIONAL WEATHER SERVICE LITTLE ROCK AR
400 PM CST WED FEB 10 2016

NOTE: "FAIR" INDICATES FEW OR NO CLOUDS BELOW 12,000 FEET WITH NO
SIGNIFICANT WEATHER AND/OR OBSTRUCTIONS TO VISIBILITY.

ARZ001-003-010-029-102300-
NORTHWEST ARKANSAS

CITY           SKY/WX    TMP DP  RH WIND       PRES   REMARKS
FAYETTEVILLE   SUNNY     53  23  31 SW14      29.99F
FORT SMITH     SUNNY     61  21  21 SW15      30.03F
HARRISON       SUNNY     54  22  28 W9        29.98F
BENTONVILLE    SUNNY     54  21  28 SW15G21   29.98F
ROGERS         SUNNY     52  23  32 SW13G23   29.97F
SILOAM SPGS    SUNNY     54  23  30 SW15G21   29.98F
HIGHFILL       SUNNY     53  23  31 SW17G24   29.96
SPRINGDALE     SUNNY     52  21  30 SW15G21   30.00F
$$

ARZ004-005-016-102300-
NORTH CENTRAL ARKANSAS

CITY           SKY/WX    TMP DP  RH WIND       PRES   REMARKS
BATESVILLE     SUNNY     48  18  29 SW12      30.09F
FLIPPIN        SUNNY     52  18  25 S5        30.00F
MTN HOME       SUNNY     48  16  27 S7        30.01F
$$

ARZ040-041-102300-
WEST CENTRAL ARKANSAS

CITY           SKY/WX    TMP DP  RH WIND       PRES   REMARKS
MENA           SUNNY     59  27  29 SW13G21   30.08F
MOUNT IDA      SUNNY     58  23  26 SW10G18   30.05F
$$

ARZ009-017-025-026-028-102300-
NORTHEAST ARKANSAS

CITY           SKY/WX    TMP DP  RH WIND       PRES   REMARKS
CORNING        FAIR      37  10  32 SE5       30.14F
JONESBORO      SUNNY     37  13  37 S9        30.14S
NEWPORT        SUNNY     44  16  32 S14       30.12F
WALNUT RIDGE   SUNNY     39  10  30 S9        30.12F
BLYTHEVILLE    CLOUDY    39  10  30 SW6       30.17R
NW BLYTHEVILLE PTSUNNY   37   7  28 SW8       30.16S
$$

ARZ022-023-033-042-044-102300-
CENTRAL ARKANSAS

CITY           SKY/WX    TMP DP  RH WIND       PRES   REMARKS
LITTLE ROCK    SUNNY     53  19  26 SW13G20   30.11F
N LITTLE ROCK  SUNNY     51  22  31 S9G16     30.11F
JACKSONVILLE   SUNNY     52  19  27 SW12      30.08F
SEARCY         SUNNY     48  18  29 S10       30.11F
HOT SPRINGS    SUNNY     56  23  27 SW13      30.09F
RUSSELLVILLE   SUNNY     54  18  24 NW7       30.05F
CLINTON        FAIR      48  18  29 SW8       30.07F
$$

ARZ036-102300-
EAST ARKANSAS

CITY           SKY/WX    TMP DP  RH WIND       PRES   REMARKS
WEST MEMPHIS   SUNNY     42  18  37 S12       30.14F
$$

ARZ050-053-066-070-073-102300-
SOUTHWEST ARKANSAS

CITY           SKY/WX    TMP DP  RH WIND       PRES   REMARKS
ARKADELPHIA    FAIR      57  26  30 W16       30.13F
CAMDEN         SUNNY     59  19  21 SW8       30.14F
TEXARKANA      SUNNY     62  28  27 SW14      30.14F
EL DORADO      SUNNY     59  24  26 SW9       30.15F
DE QUEEN       SUNNY     60  30  32 SW12G20   30.10F
$$

ARZ056-057-069-102300-
SOUTHEAST ARKANSAS

CITY           SKY/WX    TMP DP  RH WIND       PRES   REMARKS
PINE BLUFF     SUNNY     54  21  27 SW13      30.12F
STUTTGART      SUNNY     46  19  34 SE8       30.13F
MONTICELLO     SUNNY     56  21  25 W12G18    30.14F

$$





USA.gov is the U.S. government's official web portal to all federal, state and local government web resources and services.